Location: Bartlow
(52.0833°N, 0.3167°E)
Time: 05:18:22
(UTC+00:00)

Meteor 2-17 Rocket - Pass Details

Date: 03 May 2024
Orbit: 934 x 957 km, 82.5° (Epoch: 25 May)

Event Time Altitude Azimuth Distance (km) Brightness Sun altitude
Exits shadow 01:56:42 19° 250° (WSW) 2,111 5.8 -17.2°
Maximum altitude 02:00:00 29° 296° (WNW) 1,645 5.6 -17.0°
Drops below altitude 10° 02:05:15 10° 356° (N) 2,663 7.6 -16.5°
Sets 02:08:06 0° 7° (N) 3,609 8.7 -16.3°
